P/2021 U3 ( Attard-Maury )

Japanese version
Home page
Updated on January 20, 2022

---------------------------------------------------------------------

* Profile

Discovery Date October 24, 2021
Magnitude 19.2 mag
Discoverer Georges Attard and Alain Maury (Mougins, France)

* Pictures

* Orbital Elements

Epoch 2022 Jan. 21.0 TT = JDT 2459600.5
T 2021 Oct. 24.86929 TT                                 Rudenko
q   1.8868763            (2000.0)            P               Q
n   0.11478470     Peri.  335.21465     +0.37205084     -0.19288719
a   4.1932110      Node    75.11279     +0.92781915     +0.10575011
e   0.5500164      Incl.   69.96525     -0.02701485     +0.97550574
P   8.59
From 207 observations 2021 Oct. 24-Dec. 13, mean residual 0".6.

* Magnitudes Graph

        m1 = 14.5 + 5 log d + 10.0 log r

---------------------------------------------------------------------

The orbital elements are published on M.P.E.C. 2022-A21.
The magnitudes graphs are made with Comet for Windows.

---------------------------------------------------------------------

Copyright(C) Seiichi Yoshida (comet@aerith.net). All rights reserved.